Location: Ben Robins Landing
(38.6582°N, 75.1566°W)
Time: 08:14:50
(UTC+00:00)

Cosmos 2219 Rocket - Pass Details

Date: 10 September 2024
Orbit: 828 x 845 km, 71.0° (Epoch: 12 October)

Event Time Altitude Azimuth Distance (km) Brightness Sun altitude
Rises 23:39:20 0° 202° (SSW) 3,387 5.5 -5.4°
Reaches altitude 10° 23:41:46 10° 203° (SSW) 2,457 4.8 -5.8°
Maximum altitude 23:47:25 86° 291° (WNW) 852 2.3 -6.9°
Drops below altitude 10° 23:53:07 10° 22° (NNE) 2,471 4.5 -8.0°
Sets 23:55:34 0° 23° (NNE) 3,408 5.2 -8.5°
